RH
20 17 18 23 25 26 24 20 17 13 10 12 21 33 44 54 62 58 53 52 49 60 82 86 77 71 64 55 49 45 43 43 40 36 35 32 24 20 23 24 25 27 22 22 23 21 30 49 54 54 60 59 51 42 34 35 43 55 68 68 59 62 65 58 62 67 58 40 32 34 35 39 52 57 59 60 49 54 76 82 74 65 58 65 77 85 92
19 17 21 26 26 25 22 18 18 15 10 13 26 39 46 52 57 55 57 57 54 64 76 80 84 79 64 60 59 50 45 44 41 42 41 34 28 27 27 24 24 26 23 21 23 23 26 37 42 44 53 52 41 37 32 31 42 51 58 60 55 57 65 67 72 76 67 49 38 38 42 51 57 61 69 64 54 63 68 65 73 69 56 60 66 77 95
17 19 25 27 25 23 19 19 20 14 13 23 36 44 52 60 58 54 57 54 50 60 68 72 81 82 77 78 72 59 52 47 44 46 43 36 35 36 30 26 27 31 30 26 28 29 30 37 39 38 43 41 33 36 35 32 42 50 49 50 56 66 79 82 78 76 70 59 55 59 61 63 65 67 69 67 69 72 55 51 70 67 57 72 80 86 100
18 21 26 25 23 21 20 22 22 16 21 36 45 48 56 62 56 51 53 47 43 52 57 64 77 83 88 88 74 65 64 52 44 45 44 40 40 37 33 33 37 41 41 42 45 44 39 41 47 47 47 43 36 41 45 43 48 53 48 48 62 81 87 81 78 80 78 71 70 72 69 70 77 75 73 75 78 77 71 70 74 67 73 95 96 92 100
19 23 26 24 22 22 23 26 24 25 36 45 44 46 56 60 53 51 53 48 51 57 55 63 76 78 81 81 71 71 71 57 48 49 47 42 39 38 38 40 45 49 53 59 59 55 51 49 53 55 52 48 43 42 51 56 51 48 48 50 69 92 92 81 77 73 68 64 61 59 60 68 78 77 77 82 81 81 86 82 72 66 75 89 94 93 96
20 24 26 24 22 25 27 28 30 39 49 48 42 43 48 51 47 45 48 54 65 68 57 63 76 73 74 79 76 77 77 66 58 55 51 43 37 44 50 47 46 44 51 63 62 60 65 63 61 60 50 51 57 53 55 61 52 48 56 61 76 95 92 84 85 82 74 70 64 59 61 68 76 80 83 84 82 84 89 91 89 82 78 84 94 95 96
21 25 27 24 24 31 32 29 35 46 48 41 40 44 46 49 50 45 45 53 61 59 49 55 69 70 72 82 82 79 78 72 61 54 57 54 41 44 55 53 46 40 43 59 63 61 66 66 66 63 49 53 67 61 56 59 51 54 71 75 76 88 90 87 92 91 83 79 77 70 67 71 78 82 83 82 84 87 91 94 96 92 90 93 96 97 100
21 26 28 25 27 36 38 36 37 42 45 39 37 44 50 57 60 54 52 56 55 54 51 55 67 71 74 81 80 77 78 73 62 53 56 63 53 44 50 54 50 43 43 52 55 50 49 52 57 57 49 54 62 54 56 65 59 61 78 80 74 78 84 87 92 95 89 84 82 76 70 75 81 82 82 83 83 84 89 92 92 93 97 96 93 98 103
23 27 28 26 32 42 44 42 38 35 39 38 39 47 52 59 65 61 66 72 63 54 53 60 75 80 79 80 75 74 75 69 68 65 54 51 53 46 47 54 54 49 46 46 45 39 37 41 44 42 42 47 47 43 50 61 64 70 79 79 78 83 88 89 91 95 93 84 83 83 74 72 80 84 87 89 85 82 85 86 86 93 96 95 95 100 101
22 27 28 26 35 47 47 46 42 36 36 36 40 49 50 55 63 59 66 75 60 48 55 69 78 72 68 74 69 65 68 62 66 76 61 42 41 42 43 49 52 55 51 42 36 32 29 31 32 31 32 33 33 33 35 41 58 76 82 85 89 88 88 91 92 92 91 86 89 91 81 78 88 91 89 90 86 82 86 88 87 90 90 90 96 99 96
22 26 28 26 34 47 51 50 45 40 40 39 42 50 49 55 63 59 67 74 55 45 59 68 70 64 59 63 58 52 59 58 56 64 62 49 38 32 33 40 48 55 47 32 27 27 26 27 27 26 27 29 31 30 28 37 55 66 74 87 93 83 81 91 94 90 91 93 93 91 86 90 94 87 79 81 81 81 89 93 91 91 89 89 96 99 95
23 25 27 26 31 43 50 53 51 46 45 42 43 48 47 52 60 55 61 69 53 48 58 55 53 58 53 48 50 51 52 52 49 50 53 52 40 27 26 33 40 44 36 27 27 27 27 28 30 31 30 28 30 30 34 46 53 53 60 77 86 83 84 90 90 88 92 95 91 89 93 96 92 82 73 71 73 77 81 83 84 86 89 92 96 97 94
23 24 27 25 28 39 46 51 53 52 49 44 43 47 44 45 50 42 43 57 55 50 56 49 41 47 46 42 50 53 44 42 45 44 44 46 38 28 26 28 30 29 26 25 27 29 38 49 54 51 44 39 40 39 39 43 46 49 56 65 74 81 85 87 86 86 89 90 86 90 96 94 90 88 81 73 74 79 80 81 81 79 84 91 96 95 91
22 23 27 25 27 37 43 45 51 52 48 44 44 47 43 39 42 39 38 50 53 42 44 53 51 49 48 44 47 49 46 46 48 46 45 44 38 31 27 26 29 27 25 27 29 35 52 71 73 64 59 63 65 58 47 41 41 48 54 58 67 74 77 83 84 81 87 95 95 96 98 94 91 92 87 79 79 81 83 89 85 74 75 86 91 90 88
22 22 25 25 27 35 39 41 46 45 42 43 43 44 41 32 32 36 32 39 51 48 42 48 52 48 45 44 45 51 58 62 59 54 48 39 32 30 28 28 31 29 26 29 35 46 61 69 70 71 71 72 69 62 55 47 41 44 49 54 61 67 73 82 83 78 87 97 98 98 100 97 92 90 82 73 73 77 81 90 89 72 66 75 79 81 83
22 22 23 24 28 36 41 40 41 39 38 41 41 40 39 31 25 27 25 29 49 56 40 32 36 36 37 41 43 47 58 65 68 70 66 51 37 32 30 30 31 30 31 35 41 56 68 64 63 73 72 66 66 64 59 59 56 50 48 48 52 61 73 84 87 86 89 93 95 97 99 94 88 88 80 67 69 76 79 89 95 77 60 64 70 71 74
20 21 23 23 25 35 43 43 40 37 36 39 39 35 37 34 25 24 23 24 36 41 31 26 31 32 37 45 46 46 49 52 57 66 68 57 44 36 32 31 31 29 36 51 61 67 69 61 65 76 65 55 68 70 58 65 74 65 58 61 64 71 79 85 91 93 89 90 96 99 99 91 81 80 76 64 62 69 76 91 98 78 58 59 63 65 69
18 19 20 21 22 32 43 43 40 37 34 36 38 34 33 31 24 23 24 23 29 32 27 25 28 30 35 41 42 42 41 42 50 62 68 60 47 39 37 37 39 35 38 58 74 71 63 56 61 75 65 49 61 70 62 68 76 66 64 75 81 85 88 88 92 93 86 87 94 99 98 88 76 73 70 59 60 73 83 91 89 72 60 59 58 60 64
17 17 17 18 22 32 43 43 40 37 33 33 36 34 32 29 23 23 24 23 28 31 28 25 26 29 32 32 33 35 35 36 46 62 77 70 44 35 39 39 42 43 44 62 75 68 61 56 52 64 70 56 54 65 64 63 63 59 66 80 84 87 91 91 93 93 89 90 94 97 93 80 70 71 64 57 71 88 87 79 71 64 60 58 56 57 57
16 16 15 15 19 30 41 44 43 40 33 31 34 35 36 33 28 27 27 26 27 28 26 26 26 27 30 30 31 32 32 34 39 49 65 59 37 45 65 58 50 50 50 63 74 63 60 62 53 54 62 54 49 59 61 56 51 52 64 77 79 80 89 96 94 88 89 95 95 97 95 79 68 73 72 69 81 86 74 64 61 59 57 56 57 58 55
16 15 15 14 14 19 28 37 43 41 35 32 33 34 36 37 34 32 30 28 28 28 27 26 25 26 29 30 30 31 30 34 36 39 47 44 37 56 75 62 52 52 47 57 72 64 57 61 57 52 52 52 55 63 68 68 57 48 59 72 73 76 87 96 95 88 91 100 98 92 87 74 67 75 79 76 75 68 61 61 61 60 59 58 59 59 56
17 16 16 16 14 13 16 20 26 28 28 29 30 32 35 37 37 38 36 31 30 30 29 26 24 25 28 29 30 31 30 30 31 32 37 36 35 46 51 44 44 46 42 52 67 64 57 56 55 55 55 55 57 60 69 77 64 55 68 79 76 77 78 81 88 86 85 91 89 78 70 64 65 70 70 67 64 59 58 60 60 61 61 58 58 59 56
19 18 18 17 17 16 15 14 14 16 18 22 27 30 35 40 42 43 40 34 31 31 28 26 25 25 27 29 30 30 30 31 30 31 33 35 36 39 36 36 41 38 34 41 49 52 54 51 50 56 55 53 58 63 66 68 62 63 78 79 70 68 66 69 81 79 72 74 71 63 62 62 61 62 61 60 60 58 57 58 58 59 59 56 56 58 56
17 18 18 18 18 17 17 16 16 15 15 19 26 30 35 41 42 41 39 35 32 30 27 25 25 26 27 29 30 30 30 31 30 29 30 30 34 38 34 32 35 34 32 33 32 36 44 44 47 54 50 47 60 70 68 64 58 63 73 70 63 63 63 70 81 79 78 83 72 59 61 61 56 58 59 57 60 60 60 63 64 65 65 65 65 65 64
15 16 15 16 16 16 17 17 17 15 16 22 28 28 28 32 35 37 40 39 36 35 34 30 26 26 27 28 29 30 30 31 30 29 30 28 29 33 32 28 30 31 28 26 23 25 33 41 49 55 48 43 50 58 63 63 58 59 68 68 65 65 64 72 81 79 80 82 68 56 59 57 53 57 56 54 60 63 62 66 69 69 69 69 69 69 66
14 14 13 14 14 14 15 17 18 17 18 24 29 29 26 26 29 35 41 42 39 39 41 35 26 25 27 28 29 30 30 31 29 27 29 28 25 26 26 23 24 25 22 22 21 20 30 47 60 62 54 46 43 46 52 54 54 60 64 57 55 63 67 70 77 79 78 75 64 58 61 59 54 56 55 54 58 58 57 60 61 59 59 57 56 58 58
13 14 14 14 14 13 13 16 17 18 21 28 34 38 37 29 22 27 40 46 44 44 49 44 31 26 28 27 28 30 29 30 32 31 29 27 24 24 22 20 21 21 21 24 23 19 31 51 57 52 45 40 41 45 45 43 52 65 62 47 50 68 74 72 78 86 86 78 66 60 66 68 59 53 54 55 53 50 50 52 51 52 54 52 51 52 53
13 14 15 14 14 14 13 14 16 18 29 39 41 42 47 42 28 23 31 40 44 47 50 46 35 29 30 29 27 29 29 30 32 32 30 27 25 23 20 17 18 19 21 25 26 29 43 49 42 35 35 34 40 48 47 46 59 69 62 51 54 64 68 71 80 85 79 67 55 52 58 63 57 52 53 52 48 47 46 45 47 51 52 52 51 51 51
13 14 15 13 14 15 13 14 15 14 25 44 50 49 54 54 43 29 23 28 39 41 39 39 36 31 30 30 29 29 30 31 31 30 28 27 25 23 20 18 17 17 19 21 23 30 39 35 26 26 28 27 37 54 59 62 68 66 54 48 49 51 54 58 63 66 61 53 50 49 50 52 52 54 54 49 45 46 45 43 45 47 47 48 49 49 51
14 16 16 13 16 17 13 15 16 13 23 46 60 61 63 59 47 31 18 20 35 41 39 42 44 34 26 28 30 29 30 32 30 27 26 26 24 22 22 20 19 18 18 19 21 24 27 25 22 24 23 22 35 54 61 61 62 53 43 41 44 47 50 49 49 51 51 47 45 43 42 43 45 48 49 47 44 44 44 43 43 43 43 43 44 47 51
17 18 17 16 17 17 15 15 15 13 22 39 50 58 66 63 48 32 18 17 33 45 44 43 42 33 27 28 29 28 31 32 30 27 26 26 25 25 24 22 22 21 20 21 21 21 23 24 23 23 22 23 35 54 64 64 59 49 40 38 39 42 47 49 47 46 46 45 43 41 40 39 40 42 44 44 42 41 41 40 39 38 39 39 40 44 48
19 18 18 18 17 16 16 16 14 16 23 30 34 43 51 49 39 28 18 19 34 46 45 44 43 39 35 32 28 26 29 30 28 27 26 25 26 27 25 24 25 24 23 23 23 23 26 25 22 24 24 22 34 58 71 67 57 47 36 31 32 36 41 45 43 39 39 41 41 40 40 41 41 42 42 40 38 38 39 39 37 36 38 39 41 44 45
20 18 17 18 18 16 15 18 27 38 43 42 39 34 31 28 27 23 17 21 36 45 44 46 50 47 41 36 30 28 29 29 27 25 26 26 26 25 24 26 27 25 24 24 24 26 27 23 21 25 23 18 33 61 68 55 44 39 31 28 30 31 32 35 36 33 34 35 35 34 36 37 38 39 38 36 36 36 38 41 40 39 40 42 43 44 45
18 17 18 17 16 15 19 31 48 56 55 53 46 33 24 21 21 18 17 23 35 40 35 37 45 47 42 39 37 32 29 28 27 27 27 25 25 25 24 25 25 25 27 27 26 27 26 22 25 33 29 22 35 55 57 45 38 34 29 28 30 29 28 30 32 31 31 32 32 32 31 32 33 35 35 35 35 35 37 40 40 39 42 46 46 45 45
18 19 19 17 19 28 42 56 61 57 59 65 54 33 23 22 18 18 23 27 34 41 38 34 39 48 52 52 47 37 30 26 27 29 27 25 25 24 22 24 29 30 29 27 29 35 34 25 25 37 41 38 43 49 47 43 39 32 29 29 29 28 28 29 29 29 30 31 31 31 31 32 34 34 35 36 36 36 36 38 38 38 40 46 49 49 47
22 22 19 19 30 47 57 56 48 48 64 73 55 28 20 21 20 26 35 35 36 43 45 42 46 56 66 63 48 32 28 30 30 28 24 26 28 24 23 32 39 32 26 27 35 42 38 26 29 48 59 57 50 41 36 39 38 31 29 31 29 27 29 30 29 30 30 30 31 31 32 34 36 36 37 37 37 37 37 37 39 39 37 42 49 50 45
37 37 32 33 43 52 50 40 33 41 54 54 38 27 27 27 28 34 39 40 41 40 41 48 52 51 51 51 41 33 34 36 34 31 28 30 30 24 25 38 42 37 41 48 44 35 28 28 41 59 61 50 41 33 28 31 33 30 30 31 30 29 30 29 29 31 31 31 33 34 35 37 37 37 38 38 39 41 40 39 42 42 38 42 52 51 44
54 56 55 56 60 63 56 40 29 35 42 39 37 41 41 38 42 43 38 39 43 39 37 47 49 37 34 42 43 38 36 36 38 39 37 35 34 32 33 37 37 42 54 53 36 28 35 45 58 64 51 35 33 32 27 26 29 29 30 31 31 32 32 30 30 32 33 35 37 37 38 38 37 36 38 38 39 42 42 42 46 45 40 43 51 53 49
64 69 69 66 64 64 58 39 26 32 41 41 42 44 38 35 42 43 33 31 35 34 34 41 39 33 39 49 47 37 33 38 48 52 46 41 41 42 42 39 35 43 54 47 33 35 46 54 66 71 56 40 36 34 29 29 31 30 30 31 31 32 32 31 32 33 34 36 39 39 38 38 37 37 39 40 41 43 45 46 48 46 43 44 49 52 51
72 75 71 62 52 48 45 37 34 42 46 40 36 34 31 32 36 34 32 37 40 35 33 35 33 32 38 44 43 38 34 37 44 48 47 45 41 41 44 40 35 44 56 48 33 33 40 48 65 73 58 43 40 36 30 31 33 32 32 34 33 33 34 33 34 36 36 37 39 39 38 38 37 37 39 41 42 44 47 49 50 48 47 49 49 49 50
74 73 67 55 42 37 38 41 43 44 40 35 33 32 34 37 32 27 36 51 49 36 29 31 33 34 33 34 36 37 36 34 33 34 41 44 37 36 43 42 35 45 57 47 32 37 47 54 66 70 54 40 38 35 31 32 34 33 34 35 34 34 35 36 36 37 37 37 39 39 39 39 38 38 40 42 43 44 49 52 52 51 51 52 49 47 47
72 69 60 46 35 34 39 44 44 39 33 34 39 41 43 42 35 32 39 47 41 33 32 33 33 33 33 34 34 33 34 35 33 33 40 42 34 34 46 49 44 51 56 43 35 48 58 57 60 61 51 39 35 34 32 33 34 33 34 36 36 36 36 36 37 38 38 39 40 41 41 40 40 40 42 42 42 45 49 51 51 52 54 53 49 46 45
63 59 54 48 45 46 48 47 43 40 41 45 49 51 48 43 40 41 42 37 31 33 36 33 30 33 37 37 35 34 35 34 30 32 40 42 35 38 53 58 53 51 50 43 45 56 62 61 62 60 48 37 34 34 32 31 31 33 34 35 36 38 38 38 38 39 39 40 41 41 42 42 41 42 43 43 42 44 48 50 50 51 53 52 47 45 46
57 56 56 54 50 49 51 47 41 39 45 49 50 52 51 48 51 55 49 36 31 35 36 31 31 38 41 37 35 38 39 35 31 34 38 39 39 46 56 58 52 46 44 49 56 59 57 56 57 51 41 36 35 35 33 31 31 34 36 36 36 39 40 40 40 41 41 42 43 44 45 45 44 43 44 44 43 44 47 49 49 49 50 50 48 47 47
56 56 54 50 45 42 45 45 40 40 46 49 51 58 64 68 70 67 53 37 33 37 37 33 34 38 39 36 36 38 37 35 38 41 41 44 52 56 54 53 53 52 53 60 65 63 61 60 54 43 38 37 36 35 35 34 34 37 39 39 39 40 40 42 43 43 42 44 46 48 49 48 46 44 45 45 45 44 44 47 49 50 50 49 47 45 44
55 47 42 44 44 40 40 44 47 49 49 45 44 52 60 62 59 51 41 34 35 37 37 36 35 35 36 36 37 36 34 35 41 43 43 52 59 53 43 45 55 61 65 69 68 64 64 62 53 42 38 37 37 37 36 36 37 39 41 41 42 43 43 44 45 45 45 45 46 47 48 48 47 46 46 47 48 48 46 45 47 50 51 49 47 46 45
51 40 40 50 54 46 41 44 48 46 40 36 36 40 43 43 41 40 39 39 38 38 38 37 36 37 37 37 39 38 36 38 45 47 47 54 59 52 47 56 66 66 67 70 71 69 65 54 43 39 40 38 38 42 42 39 39 42 43 44 46 47 47 48 49 48 48 48 47 47 48 48 48 48 48 49 50 51 50 47 46 48 50 50 49 48 47
48 44 50 61 62 52 44 42 38 33 33 38 40 38 37 38 40 43 45 41 38 40 41 37 37 43 43 40 41 43 41 43 50 50 45 50 58 60 63 71 72 65 63 69 73 73 66 51 39 39 43 42 43 47 47 44 45 47 47 48 49 48 49 51 52 52 52 51 50 51 52 52 52 52 52 50 50 51 52 52 51 50 50 50 50 49 47
51 50 53 58 55 46 38 37 35 33 35 41 40 37 37 40 42 44 44 41 40 44 43 36 39 50 51 44 47 54 53 51 53 52 49 55 64 66 69 75 72 63 63 69 68 61 52 45 42 45 48 47 48 50 49 48 49 49 48 50 51 52 53 54 54 55 56 55 53 55 56 57 57 56 54 53 53 52 52 55 57 56 55 52 50 48 46
55 53 52 54 56 52 44 44 49 51 50 48 44 41 42 44 44 45 46 43 41 43 42 39 42 50 51 48 56 63 59 53 56 59 61 65 65 61 64 74 75 66 61 61 56 48 43 43 45 47 47 47 49 49 49 49 50 50 50 53 54 53 54 55 56 58 58 56 56 58 58 57 57 56 54 53 53 52 52 55 56 56 57 56 54 53 50
57 54 49 49 52 52 47 47 55 61 59 53 48 45 45 46 47 48 47 43 42 47 49 46 47 56 63 66 67 62 53 52 61 69 69 65 62 62 69 77 74 64 56 51 45 43 45 45 45 46 47 48 49 50 51 53 54 53 53 55 55 54 55 56 58 59 58 56 57 59 58 56 56 55 53 53 53 52 53 55 55 54 57 59 59 58 55
58 55 50 45 45 45 44 44 48 51 51 49 48 46 46 48 49 48 45 43 45 48 48 45 48 60 70 69 61 55 55 61 69 73 69 62 57 59 66 67 59 51 48 45 43 45 47 47 46 48 50 50 52 53 53 55 56 57 56 57 57 57 57 57 57 59 59 57 57 58 57 56 56 55 54 54 54 53 53 53 53 53 56 58 59 59 58
Wind_Speed
12 12 12 12 13 14 14 16 16 14 10 8 7 6 3 2 1 3 3 2 2 4 1 3 1 2 4 5 7 9 6 5 7 8 9 7 6 6 3 2 2 1 2 3 4 5 2 2 2 1 2 4 8 9 8 9 8 4 2 2 2 1 3 3 2 3 1 3 3 5 8 7 6 3 3 3 1 3 5 5 4 3 2 1 3 2 1
12 11 10 11 12 13 14 14 14 14 11 10 10 8 5 2 2 3 2 1 1 2 1 2 2 3 4 4 6 8 5 5 7 5 4 5 4 5 4 2 2 2 4 3 4 6 3 3 2 1 2 2 4 5 9 8 5 2 4 4 2 1 1 2 2 3 3 3 3 4 5 4 4 1 4 3 2 3 2 1 3 3 2 3 5 2 2
10 10 10 11 12 12 13 12 12 12 9 9 10 9 5 3 2 2 3 3 3 4 2 2 2 2 4 4 5 7 6 7 7 4 4 5 4 3 4 4 5 5 5 4 5 6 2 2 3 4 2 3 6 4 3 4 3 2 4 4 3 2 1 2 5 3 2 2 4 3 0 2 2 1 4 5 5 5 2 2 4 2 2 3 4 3 3
10 10 10 11 12 13 12 11 9 9 8 9 10 8 4 3 2 1 4 6 7 7 3 2 2 1 2 3 4 5 5 6 7 4 3 7 9 5 4 7 7 6 6 5 6 7 4 2 3 4 4 3 5 11 14 12 10 10 10 8 5 3 1 3 5 5 4 3 5 5 1 3 3 2 5 6 4 5 4 3 2 2 2 3 1 5 8
9 9 10 11 12 12 12 9 6 7 8 8 7 6 5 3 1 1 2 3 6 5 4 4 3 1 1 2 3 5 5 6 6 5 3 9 11 5 4 9 7 5 5 4 5 7 6 5 5 4 5 2 3 11 16 13 12 11 10 8 4 4 3 3 3 2 2 4 4 2 2 3 4 4 4 5 4 6 7 3 0 2 4 2 2 6 9
9 8 10 11 12 12 12 8 5 5 7 6 4 6 6 3 2 3 3 0 1 2 3 3 3 2 2 2 2 5 7 6 5 4 4 8 12 7 5 8 8 7 6 4 3 6 4 5 4 4 5 4 4 7 8 7 9 9 6 6 4 5 2 3 4 4 7 9 8 4 4 5 4 5 5 5 6 7 6 1 2 1 4 4 6 7 7
8 8 10 11 12 12 11 8 5 5 7 6 6 7 6 5 3 3 3 1 4 3 2 3 4 4 2 1 3 4 7 7 5 5 3 6 11 8 5 7 8 8 7 5 4 4 3 3 4 3 5 5 3 4 3 4 8 7 4 5 4 4 2 2 4 5 8 11 11 6 4 7 7 7 6 6 8 9 8 5 6 9 8 8 10 11 8
8 8 9 11 11 12 11 9 7 6 5 3 7 9 7 6 4 2 3 3 1 4 1 3 4 4 3 2 1 2 5 7 6 5 5 4 6 7 6 7 7 6 7 5 3 2 1 2 4 2 4 4 2 2 1 1 4 5 3 3 5 4 1 1 4 4 4 8 9 6 5 10 9 8 9 7 7 9 8 7 9 10 9 9 12 11 7
8 8 9 10 11 12 12 11 8 6 3 2 8 11 9 7 5 3 2 2 1 2 2 2 4 2 3 1 2 1 3 5 5 5 7 6 5 6 6 6 5 5 7 6 3 4 4 5 9 8 4 5 4 1 1 1 2 2 1 2 3 3 1 1 4 4 1 4 6 5 1 9 10 10 11 10 5 6 5 3 4 6 8 10 9 7 4
7 7 8 9 10 11 13 13 11 9 7 7 11 12 8 6 5 4 4 2 4 2 1 2 3 1 1 2 2 0 1 4 2 2 7 9 9 9 6 5 4 4 5 6 10 14 15 15 18 17 13 12 10 7 7 5 4 2 2 3 1 2 4 2 3 4 1 3 4 5 3 5 7 7 9 8 3 5 6 5 5 4 6 7 5 4 5
7 7 8 8 9 10 12 14 13 12 12 13 14 14 11 7 5 5 5 3 5 5 3 4 3 2 4 4 4 1 1 3 1 2 2 6 9 11 10 7 4 1 4 10 15 19 22 20 19 17 15 16 15 9 6 4 4 5 3 2 1 2 5 4 2 3 1 2 3 3 2 4 2 5 6 5 2 7 9 6 6 6 5 5 5 6 6
7 7 7 8 8 8 10 12 13 13 14 15 16 16 13 9 7 7 7 4 3 5 4 3 4 3 5 7 4 2 4 5 4 4 2 4 6 10 10 6 3 3 10 17 19 20 18 13 8 7 8 10 10 6 10 7 5 3 4 5 4 4 4 3 2 3 3 1 3 3 1 2 1 4 6 6 5 9 13 10 8 8 10 10 9 9 8
7 7 7 7 8 8 9 11 11 12 13 15 16 15 13 11 10 10 9 6 3 4 2 4 11 13 12 12 7 5 11 14 11 8 5 3 4 8 9 8 7 11 16 20 20 16 10 4 3 3 4 3 3 8 12 11 9 7 4 5 5 5 3 2 2 2 2 3 2 2 2 1 2 5 6 5 5 6 10 10 8 6 9 11 9 8 10
7 7 7 7 8 8 8 9 10 10 12 14 15 15 13 11 11 12 10 7 3 6 6 5 10 13 12 12 10 8 13 17 14 10 6 4 5 9 12 15 15 14 15 15 14 8 2 2 3 3 4 5 5 4 5 7 8 9 7 6 4 5 4 2 2 2 3 3 2 3 4 1 2 3 3 2 2 3 2 5 4 2 5 11 11 8 9
7 7 7 8 8 9 8 8 8 9 11 14 15 14 13 12 11 12 11 8 5 8 12 6 4 6 7 11 12 7 6 8 8 8 8 6 7 12 15 17 18 15 11 8 5 3 2 2 3 3 3 3 2 1 2 2 5 7 8 8 7 5 3 3 3 1 2 4 3 3 3 2 1 1 4 3 3 4 2 4 4 2 4 12 14 11 10
6 7 7 8 9 9 9 9 8 8 11 13 14 14 13 12 12 11 11 10 6 4 9 9 9 10 8 8 12 9 4 4 4 4 6 7 10 15 16 16 17 17 12 5 2 3 3 2 3 2 1 1 2 0 2 1 3 6 6 8 11 9 5 4 4 2 2 4 3 2 2 1 1 4 6 7 6 5 0 4 3 3 8 14 15 13 12
6 7 7 8 8 9 9 9 8 8 10 12 13 14 14 14 14 13 15 18 14 8 9 11 14 15 10 6 9 8 5 5 3 2 3 5 8 14 17 17 18 19 16 7 2 4 4 2 2 3 1 1 2 2 1 1 2 5 7 7 9 8 5 4 4 3 2 3 3 2 1 1 2 4 8 11 11 5 2 2 2 6 13 17 18 17 15
5 6 7 7 8 8 9 9 9 8 10 11 12 14 15 14 12 11 15 19 15 10 11 14 15 15 10 6 6 6 5 5 4 2 3 4 6 11 15 14 14 16 15 7 2 4 5 2 2 3 1 2 2 3 1 2 1 2 3 3 4 4 4 3 3 3 4 4 3 1 1 3 3 7 11 11 6 0 3 3 4 9 16 17 16 17 15
5 6 7 8 8 8 8 9 9 8 8 8 9 13 15 15 13 13 15 17 14 10 10 14 17 16 14 14 14 11 10 10 8 4 1 3 9 12 9 7 11 12 10 6 3 3 4 3 2 2 2 3 2 3 3 3 1 1 2 3 3 2 2 3 2 1 3 3 2 1 0 2 6 11 11 7 3 2 2 1 5 12 17 17 17 19 20
5 6 8 8 8 8 8 8 9 8 8 7 9 12 14 13 13 13 15 16 16 14 12 14 17 16 14 17 18 17 15 14 11 6 2 3 12 12 3 4 11 10 6 5 4 2 3 3 3 2 2 2 2 2 3 3 3 2 2 2 1 1 1 2 2 2 2 3 3 2 2 5 12 11 6 5 3 3 6 12 15 19 23 24 23 25 28
6 7 8 8 8 7 6 6 7 7 6 6 7 9 11 12 13 12 12 13 13 12 11 13 17 17 14 14 16 18 17 15 13 9 5 5 12 10 3 2 6 6 3 3 2 2 2 2 2 2 2 2 2 2 3 2 4 4 2 3 2 2 0 2 1 2 2 2 2 2 2 7 12 7 4 6 9 13 18 21 20 21 24 27 27 25 27
7 7 8 8 8 8 7 6 5 4 5 5 4 5 8 11 12 11 10 10 10 9 9 11 13 16 15 13 13 15 16 16 16 13 9 9 12 11 5 1 5 4 3 3 2 1 2 1 1 2 2 2 3 3 3 3 2 4 4 4 3 2 4 6 3 2 4 4 3 4 4 10 17 20 19 19 22 24 25 26 24 22 23 26 28 26 25
6 6 7 7 8 8 7 7 7 6 6 7 5 5 7 7 7 7 7 9 11 11 11 11 10 12 14 14 12 13 14 15 16 16 13 11 10 10 9 9 8 5 6 7 3 2 2 0 0 2 3 2 2 4 5 4 3 2 4 4 3 3 7 9 6 5 7 9 8 8 11 17 23 25 26 26 28 27 28 31 29 26 24 25 26 24 21
4 5 5 6 6 7 7 7 7 7 8 8 8 6 5 5 6 7 8 9 9 9 9 9 10 11 12 13 11 11 12 13 14 15 17 15 11 8 8 10 10 8 9 10 6 2 2 1 1 2 3 3 2 3 4 4 2 1 3 4 2 1 4 6 4 3 4 5 5 7 12 17 22 25 24 24 24 24 24 26 26 23 21 20 18 17 15
3 3 4 4 5 5 6 6 6 7 7 8 7 6 6 6 7 7 7 7 8 6 5 6 9 10 10 10 12 10 9 10 12 13 15 16 16 11 8 11 12 10 10 13 12 10 8 4 2 4 3 4 4 2 2 3 2 1 3 3 1 0 4 6 4 2 4 4 5 9 15 17 19 22 22 22 22 20 19 19 18 17 17 16 14 15 14
2 2 2 3 4 4 4 5 5 6 6 6 6 7 10 11 9 7 7 8 8 7 3 3 8 11 10 9 13 12 9 8 11 13 14 15 16 13 11 13 14 13 14 16 16 14 10 4 3 4 3 4 6 3 2 2 2 2 3 2 2 4 5 4 4 5 5 5 7 11 13 11 12 18 21 21 23 22 20 19 18 17 18 18 17 16 14
2 2 1 2 3 3 3 3 3 4 5 5 6 9 12 13 12 9 8 7 5 4 2 0 5 10 11 10 11 12 12 11 11 12 12 13 14 15 14 14 14 16 16 17 16 14 10 6 4 2 1 3 5 3 3 3 3 4 3 4 5 7 4 3 5 6 3 3 7 10 8 5 9 16 20 20 20 21 19 18 17 16 16 16 16 15 14
2 1 0 1 2 2 2 2 2 3 5 5 5 7 10 12 12 10 9 8 6 5 5 3 4 7 8 7 7 10 12 13 12 11 11 11 12 14 15 15 16 16 16 15 12 9 6 4 3 2 1 3 4 3 3 3 5 4 3 5 5 5 6 6 6 5 5 9 13 14 12 10 11 16 19 19 18 18 18 17 17 16 15 15 15 14 12
2 1 0 1 2 2 2 1 1 3 4 4 2 3 6 8 9 8 7 8 8 9 10 7 5 4 5 5 5 6 9 11 12 11 12 13 13 14 15 16 16 16 16 14 10 6 5 5 3 3 4 3 2 2 3 4 5 3 4 7 11 10 10 13 14 11 11 16 18 17 17 16 14 16 18 17 16 16 16 15 14 13 13 12 11 11 11
2 1 1 1 2 2 1 0 1 2 4 4 3 1 3 4 5 7 6 7 8 9 9 6 4 3 4 7 7 5 7 9 10 10 12 14 15 15 15 16 15 15 15 14 10 6 4 4 4 6 8 6 3 2 2 4 4 2 5 15 21 18 16 18 18 16 16 19 20 20 21 20 18 17 17 15 13 13 13 11 9 8 7 7 7 9 10
2 1 1 2 2 2 1 1 2 2 4 4 4 2 2 3 3 5 5 6 7 8 7 6 3 2 3 6 7 5 6 7 8 9 10 11 10 11 13 14 14 13 13 12 10 6 4 3 4 8 11 11 8 3 2 5 3 2 6 17 22 20 18 19 19 20 21 22 22 21 20 19 17 16 15 14 11 10 11 11 8 6 5 4 3 5 6
1 1 1 2 1 0 2 3 3 3 4 3 4 4 4 2 1 1 2 5 7 6 6 5 3 1 1 3 4 4 5 4 6 8 10 9 7 7 9 11 12 12 10 8 6 6 5 4 5 8 11 12 8 3 3 6 3 3 10 19 21 19 20 20 20 22 21 20 20 20 18 15 14 13 12 10 9 8 10 10 9 8 7 5 4 5 5
1 1 1 1 1 3 4 5 5 6 6 7 7 7 4 3 2 1 3 6 5 4 4 3 2 1 0 1 2 5 6 5 5 7 10 10 8 6 6 6 7 9 9 6 3 3 5 5 5 6 9 10 7 3 3 4 6 11 17 21 19 18 18 18 19 19 18 16 16 16 15 13 13 11 8 6 6 7 9 9 8 8 8 6 6 6 5
2 3 3 3 4 6 8 8 7 5 6 7 7 7 5 4 3 4 6 6 4 4 4 3 2 1 0 1 2 5 6 5 4 4 6 8 10 8 5 4 5 7 8 6 5 3 4 5 5 4 5 7 6 5 3 2 9 16 19 18 19 20 19 17 17 16 14 13 12 12 11 10 10 9 9 8 8 9 9 9 9 8 8 9 8 6 6
5 6 6 7 9 10 10 8 5 4 4 5 6 7 5 4 5 6 7 6 4 3 2 2 2 2 1 1 1 3 4 6 6 4 3 6 9 10 7 4 4 4 4 4 4 3 3 5 4 3 3 4 4 3 1 5 10 16 18 17 18 20 19 17 16 14 12 12 12 10 8 7 7 8 8 8 9 8 8 8 8 6 5 7 7 5 7
10 10 9 10 11 11 8 6 4 3 2 3 4 4 4 6 7 8 8 6 5 3 2 2 1 2 3 2 0 2 4 6 7 6 5 4 6 9 8 5 3 3 3 3 3 3 5 6 4 2 4 4 3 2 6 11 14 15 16 16 15 15 16 16 17 15 13 12 11 9 8 7 7 6 6 8 10 10 10 10 9 5 5 6 5 4 7
13 13 12 12 11 9 6 4 4 4 4 4 4 5 7 8 8 7 6 6 5 4 4 3 1 0 3 4 1 3 4 5 4 5 6 5 4 5 6 4 1 2 4 4 3 4 5 7 6 3 2 2 2 6 12 14 12 11 12 13 12 12 14 16 17 16 14 12 11 9 8 7 6 5 5 6 10 12 10 9 6 3 2 5 6 5 7
15 13 12 10 8 6 4 4 5 5 6 6 6 6 6 5 5 4 4 4 3 4 5 4 3 4 7 5 4 5 4 3 4 4 5 5 4 3 4 3 2 2 2 2 3 5 4 4 4 3 1 1 4 9 12 13 12 10 7 6 8 11 15 18 18 17 16 15 13 11 10 9 8 5 5 4 7 11 9 6 4 2 1 5 8 6 4
13 11 10 8 6 4 3 4 6 7 6 5 4 3 3 3 2 1 2 2 2 3 3 3 4 8 9 6 5 6 6 4 4 4 3 4 4 2 2 2 2 3 2 1 4 6 4 1 2 3 2 4 7 12 13 12 12 12 10 8 6 8 14 16 15 12 12 14 14 12 10 8 6 4 4 5 6 10 9 6 5 3 3 6 8 5 3
12 10 9 8 7 6 6 7 8 6 4 3 3 3 2 2 1 1 1 2 2 1 1 2 5 10 11 9 6 7 6 5 3 2 2 3 3 2 1 1 2 2 2 0 4 4 3 1 2 3 1 3 5 13 14 12 12 11 10 11 8 5 11 13 10 8 10 14 14 12 8 6 4 4 4 4 5 8 9 7 5 4 6 8 7 4 4
11 10 9 8 8 9 9 8 7 5 3 3 3 2 1 1 1 1 2 2 1 0 1 3 5 6 9 10 8 6 5 5 5 4 3 2 3 3 1 1 2 2 2 1 4 3 2 2 2 1 1 2 8 13 12 11 11 9 8 8 8 4 6 10 10 10 13 15 14 10 7 6 6 6 5 3 3 6 8 6 5 6 8 8 6 5 5
11 11 10 10 10 10 9 6 4 3 3 3 2 1 1 0 0 1 1 1 1 1 2 3 5 5 7 8 8 6 5 4 4 4 3 1 3 3 1 1 2 3 1 3 3 2 3 3 2 1 2 7 12 12 10 10 10 8 7 7 7 7 4 4 9 14 15 13 11 9 7 6 6 5 3 2 2 4 5 4 4 6 7 6 5 5 4
13 13 11 10 9 7 5 3 2 2 2 2 2 1 1 1 1 0 0 1 2 3 3 4 7 7 7 6 6 6 5 4 4 4 3 1 1 2 2 2 2 1 2 2 2 3 2 1 1 3 4 9 11 9 8 9 9 8 7 6 5 6 6 5 9 15 14 10 9 8 5 4 4 4 3 1 1 3 5 4 4 4 5 6 6 5 4
13 12 9 7 5 4 2 1 0 0 0 0 1 2 1 1 1 1 1 1 2 3 4 5 6 5 4 4 5 4 4 4 3 3 2 1 1 2 2 1 1 1 1 1 2 2 1 0 1 5 8 10 9 7 6 6 6 5 5 5 4 4 5 5 8 13 12 8 6 4 2 2 4 5 3 2 3 4 4 5 5 5 6 7 8 7 6
11 9 6 3 1 1 1 0 1 1 1 1 2 3 3 3 3 2 2 3 6 9 10 10 10 8 6 4 3 2 2 2 2 1 0 1 2 2 1 2 1 1 2 1 2 1 0 1 2 7 11 9 7 5 4 3 3 4 5 5 4 3 3 3 4 7 7 5 4 5 6 5 5 5 3 2 3 4 5 5 6 7 8 10 10 7 6
9 7 5 2 0 1 1 0 0 1 1 3 4 5 5 4 3 5 7 10 12 14 14 12 10 8 5 3 2 2 2 2 2 0 1 2 2 0 1 1 2 3 2 2 2 1 1 3 3 6 9 8 6 4 3 1 2 2 3 4 4 4 5 4 2 2 4 4 4 6 7 7 6 6 5 4 3 4 4 5 6 7 9 11 10 7 5
7 5 4 2 0 1 1 1 2 2 2 5 9 13 15 15 14 14 14 14 13 12 11 11 10 8 5 4 3 2 1 2 1 1 1 2 1 1 1 2 1 0 1 1 1 2 3 3 5 8 7 6 4 2 2 1 1 1 3 3 3 4 5 4 3 2 3 4 5 6 7 6 5 5 5 6 6 5 5 5 6 7 8 9 9 8 7
6 4 2 1 1 1 1 2 3 2 4 11 17 18 19 19 18 16 14 12 10 9 8 8 7 5 3 3 2 1 1 3 2 1 1 2 2 1 2 2 1 1 2 3 4 4 4 7 9 9 6 5 3 2 2 2 1 1 3 4 4 5 5 6 8 8 7 6 7 7 7 7 7 7 6 6 7 7 6 6 7 9 9 9 9 10 9
5 4 1 0 1 1 2 2 2 1 5 12 17 17 18 19 19 15 12 9 9 8 8 7 6 3 1 2 2 1 1 2 1 0 1 2 2 1 1 1 1 2 1 2 3 5 7 10 10 8 6 5 4 2 1 0 2 4 5 5 6 6 7 8 9 9 8 9 11 11 10 9 9 10 10 8 7 7 7 6 7 8 9 8 9 10 9
4 3 1 1 1 3 5 1 3 3 4 10 16 17 17 17 16 12 10 9 8 8 8 7 6 3 1 2 2 2 1 1 1 2 2 1 1 1 1 1 2 3 2 2 5 8 9 8 6 5 4 3 2 2 3 3 3 4 4 4 4 6 8 9 9 8 8 9 10 11 10 9 9 11 11 10 8 8 7 7 7 7 7 8 9 9 8
3 2 1 1 2 4 6 3 6 6 6 10 15 15 14 14 13 10 8 8 7 6 5 3 3 3 3 2 1 1 1 1 1 2 0 1 1 2 2 2 3 3 4 5 7 7 6 4 3 3 2 2 3 5 5 5 5 6 6 5 5 7 8 8 7 7 8 8 7 8 8 6 7 8 10 11 10 9 9 8 7 7 6 8 10 11 9
3 1 1 1 1 2 1 4 9 10 11 13 14 13 13 13 12 9 8 7 6 5 4 3 2 3 2 0 1 1 1 1 2 2 0 1 1 1 4 5 3 3 5 6 5 5 5 4 3 1 1 2 3 4 6 6 7 7 7 6 7 8 8 7 6 6 6 6 6 7 8 7 6 7 10 11 12 12 11 11 10 8 7 7 10 12 12
Wind_Direction
345 349 356 358 356 353 349 343 338 343 1 20 21 29 41 24 85 131 143 172 165 148 132 345 350 223 289 301 301 307 304 295 300 307 314 312 299 297 302 331 330 352 355 335 353 353 334 135 110 279 244 217 208 202 179 137 110 113 149 279 263 121 76 63 315 297 302 293 315 65 77 81 72 9 348 39 76 129 140 175 170 126 132 126 83 90 200
350 357 3 2 359 355 350 345 337 337 354 15 18 14 3 5 116 144 159 183 67 80 109 313 292 279 313 329 317 320 314 297 304 308 307 311 314 309 305 335 2 345 331 336 3 359 15 90 62 304 220 248 255 214 176 148 117 139 174 196 213 130 82 82 66 359 347 308 294 357 25 56 86 320 320 355 19 65 93 143 90 98 191 152 121 154 219
357 5 9 7 1 355 354 350 334 332 358 17 7 360 5 39 106 131 114 109 64 56 126 199 225 293 336 346 323 323 319 310 316 304 283 317 345 320 304 359 37 12 351 11 20 10 30 93 5 340 0 11 353 356 142 138 86 103 142 142 116 123 183 109 108 144 178 190 225 239 278 77 86 344 350 13 24 39 71 123 82 102 210 101 109 165 165
3 11 14 9 3 358 359 358 337 335 11 20 3 3 28 73 85 89 93 84 65 57 66 106 130 201 26 13 322 320 317 313 326 334 318 344 356 349 338 15 37 20 10 36 29 8 352 31 46 11 6 3 6 37 58 60 52 53 52 56 84 107 83 77 113 154 180 196 230 241 213 100 96 50 20 21 17 36 72 97 90 161 151 60 89 157 131
10 17 18 10 7 4 6 9 349 343 10 12 4 21 52 82 74 89 92 42 37 38 27 54 85 199 124 81 313 318 322 314 338 2 354 353 358 3 9 21 37 22 11 49 34 355 347 22 41 6 352 327 1 47 59 56 54 57 39 31 79 100 44 28 81 101 337 327 311 309 43 84 110 110 59 37 29 49 70 77 263 153 113 69 198 146 122
17 23 20 13 13 12 15 27 17 6 27 35 43 50 54 67 58 78 102 172 260 43 4 16 48 35 94 101 326 336 340 338 353 345 327 4 15 24 12 13 35 35 28 76 41 354 354 15 5 346 357 343 348 32 44 35 48 66 45 25 75 108 54 7 43 34 5 2 358 14 74 75 74 93 91 77 70 74 88 106 281 113 119 153 155 125 106
25 28 23 17 20 22 26 38 42 52 60 62 75 75 64 67 62 66 89 158 195 143 44 26 53 42 51 51 355 355 352 346 343 333 333 12 15 25 29 0 14 33 42 80 69 23 25 359 332 339 359 342 336 24 16 7 32 50 54 28 50 91 54 21 67 55 25 18 357 343 92 89 63 55 57 72 83 83 85 88 78 77 85 111 116 100 80
31 34 28 22 26 32 37 41 49 69 71 54 74 76 67 67 53 7 36 34 180 163 113 51 70 30 16 56 327 342 1 344 329 344 7 14 358 15 31 359 354 30 43 57 82 76 73 298 278 286 358 349 354 37 355 277 13 25 68 32 18 51 89 293 84 74 28 20 2 345 97 95 70 40 19 28 71 78 73 82 86 80 80 95 100 95 80
38 39 34 29 33 39 41 45 51 63 78 112 90 77 76 88 67 24 40 18 329 198 215 73 90 16 358 93 235 349 16 332 320 341 349 3 9 1 11 6 352 10 25 25 358 328 324 279 271 270 271 274 265 261 258 150 68 24 71 67 26 65 97 345 63 81 345 358 2 323 102 83 61 29 2 351 24 80 75 63 78 103 122 119 107 102 113
45 45 39 35 41 44 43 47 54 63 80 98 88 75 77 102 91 71 103 67 359 0 205 58 64 5 296 227 248 177 208 268 288 358 330 345 6 1 6 27 12 3 12 351 319 315 315 304 294 289 279 270 261 250 257 241 169 130 75 75 89 137 119 86 81 95 329 333 346 287 276 61 44 355 336 322 321 94 81 45 40 72 120 129 126 122 135
50 52 46 42 47 49 45 45 52 64 74 75 71 64 58 67 81 73 89 79 355 4 51 41 24 280 272 278 276 344 316 284 342 96 293 324 356 -0 3 18 28 347 309 318 318 316 314 307 298 290 281 276 278 291 302 266 161 135 136 111 60 118 124 133 137 119 177 286 349 334 352 67 37 308 328 338 37 90 87 66 48 56 76 100 109 105 111
56 59 52 48 52 57 52 46 46 55 64 64 61 59 53 58 77 76 83 96 6 10 57 35 354 326 332 333 309 298 341 338 350 8 306 288 341 353 355 9 24 324 323 327 325 321 319 312 297 288 280 271 283 352 41 52 45 66 131 133 107 96 107 118 120 115 142 138 52 46 56 87 239 306 346 8 43 82 85 71 58 76 94 98 99 102 105
61 64 58 53 56 63 61 54 51 54 60 59 55 56 56 65 89 92 85 92 39 5 55 18 10 22 23 10 359 359 6 6 1 354 332 288 330 346 347 349 329 315 326 330 325 324 328 332 344 336 324 330 15 44 58 58 35 26 65 103 117 123 114 104 100 93 118 122 93 114 136 88 328 327 343 1 15 49 73 66 48 73 107 107 103 108 114
65 68 63 59 60 68 70 66 62 60 61 58 52 54 57 66 92 101 91 95 77 20 39 30 5 17 28 17 13 21 15 9 5 1 345 307 322 338 345 353 347 332 328 325 322 333 14 20 14 10 350 14 37 27 39 52 38 28 37 44 79 121 123 107 88 83 116 117 91 107 125 128 340 341 336 347 343 332 81 92 57 36 120 125 121 121 125
68 72 68 64 64 72 76 75 73 69 65 61 56 58 65 69 87 101 98 107 109 34 32 33 349 2 25 22 19 25 9 357 359 2 357 345 344 349 358 7 5 357 348 334 330 7 60 52 52 46 1 26 66 324 335 35 19 15 36 46 52 75 112 136 123 89 98 107 102 114 138 166 185 260 279 282 269 260 213 106 77 44 132 139 133 131 141
71 74 72 69 70 75 78 75 77 78 72 67 63 66 75 78 84 96 97 96 108 42 25 40 49 46 43 29 26 31 22 351 343 347 357 351 342 348 4 17 13 8 8 11 21 32 48 88 105 110 130 151 150 288 339 23 346 341 5 40 48 48 50 87 95 63 62 100 108 121 145 170 238 255 276 302 301 274 204 86 88 133 143 143 136 135 149
73 74 73 73 74 78 81 76 74 79 76 71 71 74 80 86 88 92 90 86 87 76 49 56 61 55 47 23 19 23 10 350 349 6 357 319 316 341 2 14 16 17 21 27 17 27 43 63 64 79 106 258 123 124 11 45 35 337 340 13 34 34 26 44 67 62 66 88 90 85 140 245 275 274 287 308 315 300 139 120 184 154 148 151 147 145 157
74 75 75 75 76 81 85 80 75 82 82 75 77 81 83 89 93 95 93 91 90 78 60 60 64 63 61 54 39 32 19 4 2 6 329 296 304 332 346 2 16 17 21 31 45 34 37 21 39 93 117 324 72 111 63 46 59 336 347 21 26 22 22 43 76 88 76 87 101 78 267 258 289 305 306 316 329 344 160 207 208 149 142 151 150 146 153
79 82 78 75 82 88 90 86 78 83 92 90 88 87 87 91 96 96 94 93 94 94 79 65 65 69 67 63 61 59 51 42 35 34 357 321 336 334 331 9 21 8 7 26 39 37 33 353 330 94 76 6 31 91 75 60 47 346 46 47 28 17 6 15 49 58 58 85 97 72 179 309 325 317 319 353 58 186 211 110 133 127 122 122 122 121 121
82 86 82 80 88 92 94 93 82 83 98 104 98 92 90 94 98 97 99 101 100 102 94 73 65 65 59 55 55 53 49 44 38 42 142 297 341 350 8 25 3 354 4 28 21 16 33 355 324 25 57 3 14 82 90 61 44 61 85 70 56 86 63 35 35 29 63 81 56 82 184 321 336 326 318 18 62 158 106 86 97 108 109 106 106 109 114
83 83 82 81 86 89 93 95 87 84 90 95 102 104 101 101 101 100 106 111 106 103 98 81 68 63 58 52 50 49 49 46 36 33 51 24 10 26 122 225 326 344 10 33 24 350 352 334 322 13 32 339 2 74 117 88 38 25 74 105 72 355 61 148 260 336 98 115 48 83 220 331 2 34 89 73 87 109 103 92 90 95 102 106 105 106 113
84 80 80 79 78 79 81 79 75 72 67 67 86 121 120 111 103 98 100 102 100 102 108 97 76 65 63 59 49 47 48 46 39 37 47 50 43 56 87 7 356 7 4 23 60 355 339 350 353 34 40 3 13 48 83 99 56 356 11 57 36 8 96 107 91 41 77 99 106 109 76 44 57 79 89 88 93 99 100 97 92 90 98 106 107 107 111
87 79 76 74 72 72 71 68 64 58 58 63 75 118 137 123 96 88 100 105 104 105 110 105 84 68 69 68 58 53 50 44 39 41 52 58 52 50 44 25 14 3 6 22 20 247 230 126 143 92 71 31 38 56 49 61 75 15 20 51 67 97 100 93 92 96 82 79 93 100 80 69 76 87 92 94 96 98 97 95 92 92 98 104 106 108 109
93 81 73 68 65 64 63 62 61 55 54 60 65 85 121 121 96 97 112 114 107 101 99 92 78 72 77 71 59 58 59 48 38 42 50 52 47 42 36 26 15 2 15 34 43 73 100 71 0 78 70 20 35 84 68 61 73 66 68 66 22 15 76 76 91 126 100 82 98 101 92 88 89 92 95 96 97 100 102 99 96 96 98 99 101 104 104
102 82 70 61 54 54 57 59 60 60 59 61 65 80 100 100 94 99 108 109 104 100 103 87 74 80 90 70 50 55 68 58 48 50 52 46 41 39 36 33 32 32 43 56 63 66 66 53 37 76 71 14 18 57 86 80 92 105 92 87 306 32 87 81 78 79 83 105 128 112 103 105 104 102 104 104 104 107 109 106 103 101 99 100 105 110 112
116 86 68 56 44 39 47 55 62 69 72 75 78 83 87 84 81 87 105 116 111 99 101 100 82 86 92 66 47 55 79 80 62 58 58 51 44 40 34 37 51 64 69 68 64 62 65 67 63 85 74 16 22 51 83 71 79 78 62 58 101 112 102 89 92 92 85 103 123 110 97 96 105 110 111 111 111 112 112 111 112 111 110 112 113 115 117
135 105 66 50 39 27 35 54 74 85 90 92 83 76 74 72 70 76 94 114 120 101 76 104 94 90 86 69 51 54 72 80 65 51 51 51 46 42 42 48 64 74 73 67 61 57 59 61 52 64 72 23 27 54 73 67 74 74 40 10 58 94 108 102 104 114 133 163 150 130 114 109 117 117 117 117 117 116 115 115 116 116 117 117 115 113 112
156 141 62 22 14 10 20 40 82 113 118 114 97 81 72 63 55 60 73 80 90 112 117 109 98 95 89 78 59 49 56 64 56 43 44 48 45 46 52 61 70 72 70 67 63 54 50 47 33 17 39 42 33 28 34 49 62 58 349 340 30 109 155 147 126 132 152 155 151 141 131 132 135 129 125 125 126 123 117 112 113 116 121 122 119 117 115
180 188 262 318 340 352 358 23 89 143 144 131 101 79 75 65 52 51 67 78 90 113 121 109 86 85 92 91 77 56 55 59 53 49 57 63 60 59 61 64 66 67 69 71 70 65 59 55 50 39 31 33 61 42 26 47 59 25 350 39 72 105 130 124 119 117 119 133 142 136 121 120 133 142 139 135 134 130 121 115 115 117 119 118 116 121 128
195 205 281 287 305 325 326 25 131 161 157 149 144 105 84 83 59 43 57 84 98 110 118 112 95 98 97 92 90 77 58 57 56 60 67 70 66 62 61 64 67 68 69 69 65 62 58 48 39 36 33 42 89 102 63 80 81 358 29 71 87 104 114 115 120 124 123 128 131 125 117 115 119 129 133 132 127 123 121 121 117 113 120 124 118 125 136
192 213 265 269 286 317 334 139 150 165 165 165 170 154 108 100 63 34 54 90 101 103 106 101 101 128 105 93 91 72 41 45 58 65 66 68 66 58 52 58 65 66 64 63 59 54 49 35 24 30 41 59 82 98 97 97 86 355 58 81 90 103 113 117 121 122 122 125 123 117 117 118 117 118 122 122 117 113 115 119 115 114 136 149 130 131 141
209 230 254 266 279 250 146 148 142 138 135 132 135 135 131 137 127 23 87 108 107 106 108 103 98 110 98 95 81 47 36 61 81 70 61 58 62 58 50 53 60 58 51 50 49 39 33 37 38 36 45 63 83 92 79 92 116 146 104 96 95 101 109 116 120 119 122 127 123 111 107 110 113 117 119 117 115 119 123 121 116 119 132 144 147 148 151
213 216 205 192 164 138 136 133 125 122 118 107 101 101 112 143 171 158 130 125 113 93 90 103 121 129 114 119 56 35 50 91 99 68 56 50 44 51 60 54 48 49 50 47 42 39 39 43 47 44 47 62 82 85 64 101 147 137 115 106 106 109 109 111 115 115 116 121 120 112 109 113 118 125 135 135 133 140 143 139 133 130 129 138 157 165 164
169 155 146 147 143 135 132 129 122 118 119 109 89 73 76 103 124 116 122 129 121 90 75 80 91 82 110 165 66 40 52 78 79 50 49 48 42 49 67 56 34 45 53 45 38 51 52 40 36 34 38 55 76 78 57 157 152 136 123 117 120 121 117 114 116 118 116 117 118 114 116 124 129 135 149 156 151 151 156 157 156 150 136 134 146 168 186
143 139 140 141 137 132 129 123 104 84 97 96 70 51 59 91 105 108 117 124 116 98 80 64 80 95 93 76 37 18 31 50 52 47 64 61 48 42 44 43 40 47 50 40 38 41 32 29 28 13 10 34 54 61 150 181 156 136 131 134 134 133 131 127 127 131 132 131 131 125 121 127 133 138 157 175 176 176 183 185 185 192 182 163 160 173 186
137 136 138 140 137 134 131 117 87 63 72 76 52 46 75 107 111 110 111 108 97 91 82 70 98 145 142 132 109 0 33 44 49 55 64 62 46 37 35 41 51 36 30 42 40 16 21 38 43 9 13 34 47 91 134 153 157 150 150 157 158 155 155 152 147 145 143 139 137 135 133 136 135 136 161 186 193 197 204 204 202 215 223 200 179 145 155
137 134 133 134 133 130 119 86 66 73 90 98 96 94 101 111 114 111 106 98 85 70 67 64 6 278 134 134 89 9 25 25 30 45 40 26 25 29 28 34 45 18 32 46 24 0 33 63 74 62 37 62 113 102 102 115 133 150 164 175 178 173 170 166 159 154 151 148 145 143 144 144 137 121 126 166 192 202 206 205 202 215 233 198 174 140 143
139 134 134 135 132 124 95 59 68 95 107 106 104 102 99 101 104 101 95 93 83 66 67 69 52 73 99 99 46 29 36 26 38 53 33 19 25 15 5 21 30 7 31 46 355 356 22 57 72 83 79 26 74 87 90 93 95 95 110 149 176 184 180 174 169 165 158 151 149 150 149 143 137 119 92 114 184 199 204 206 202 200 202 189 180 163 158
141 136 132 124 114 110 95 85 101 113 111 98 88 89 90 80 70 65 63 66 79 84 78 72 77 89 99 100 64 57 63 54 55 63 37 28 38 14 339 20 23 18 56 62 350 8 29 21 39 68 27 351 48 82 94 97 90 78 71 81 119 179 188 182 180 181 174 163 162 166 165 154 146 134 94 99 164 191 200 203 200 189 173 184 188 192 223
144 137 127 111 106 119 126 117 113 114 103 74 58 57 62 53 34 167 120 49 22 48 110 103 92 90 96 102 88 65 59 60 72 97 89 48 37 22 34 44 5 28 76 335 328 4 59 77 50 69 350 322 70 93 97 94 87 78 69 69 83 157 192 193 195 196 182 172 169 171 173 165 155 148 125 113 158 189 193 190 191 196 190 187 193 211 234
145 140 131 118 119 131 132 120 108 94 76 64 52 47 55 0 319 121 106 74 12 274 105 102 102 93 94 99 95 77 70 76 81 94 104 47 15 27 55 347 356 50 84 289 315 3 76 80 58 77 215 122 99 101 99 91 86 82 70 56 54 85 181 196 196 181 169 163 159 156 153 146 142 149 150 129 146 186 193 190 196 208 205 196 193 202 221
144 139 128 121 126 131 125 112 99 86 72 61 35 5 337 311 0 79 96 104 159 145 80 83 103 104 99 100 99 90 84 77 69 81 96 34 14 48 75 338 31 67 207 269 313 18 60 74 70 233 176 113 104 100 92 84 79 76 69 56 47 51 69 154 167 160 157 156 153 148 145 146 148 158 160 125 127 182 197 194 193 202 206 202 200 211 236
141 135 126 123 127 126 113 92 95 92 66 55 54 30 332 326 346 18 235 168 130 110 97 114 120 109 95 96 102 94 81 73 70 80 87 76 29 67 53 28 55 98 258 285 26 55 72 102 163 203 153 117 108 101 90 83 80 76 71 61 52 52 57 94 148 156 156 156 156 152 151 159 172 177 177 153 191 211 211 205 200 202 206 210 221 248 269
140 134 129 125 122 117 107 83 86 104 32 18 119 122 141 251 236 168 150 162 129 103 102 129 142 129 98 91 101 100 87 74 66 66 72 84 70 62 62 68 234 257 294 350 45 70 100 168 169 160 143 126 115 107 94 81 76 75 66 44 34 52 65 98 148 161 162 158 158 173 201 200 185 185 185 189 214 225 223 211 202 207 220 227 236 250 254
145 137 127 105 77 108 127 311 309 147 160 197 182 161 174 201 207 185 146 137 125 106 98 109 126 130 118 102 105 120 122 90 70 59 168 81 47 43 155 211 255 26 54 39 29 61 61 273 195 152 144 136 121 104 85 68 72 75 61 39 27 20 21 51 127 167 188 211 249 260 253 227 203 206 209 185 191 222 240 231 215 217 229 235 236 242 245
149 145 133 104 351 236 168 104 293 222 227 230 203 168 154 153 138 108 103 112 115 106 96 97 108 112 104 91 97 113 118 108 98 110 109 88 71 318 214 147 48 44 48 26 20 80 230 258 214 152 144 140 124 97 77 97 115 74 41 34 26 2 347 7 62 158 208 223 231 230 224 214 215 233 242 227 209 224 247 245 229 223 233 240 241 244 246
151 157 146 114 303 249 184 180 225 241 197 161 140 124 115 111 104 97 99 107 111 107 98 93 94 92 81 76 90 102 94 93 86 345 31 93 114 300 19 65 64 78 111 114 214 230 227 197 154 144 148 154 144 90 49 83 120 41 20 21 6 349 340 338 336 311 255 225 213 214 218 219 222 231 237 240 244 244 244 241 236 234 240 245 242 235 229
144 150 147 138 167 189 193 207 225 220 138 135 130 122 116 112 103 96 100 108 109 106 103 95 88 83 67 57 71 89 52 61 63 336 4 88 94 19 24 34 332 271 162 166 204 224 197 159 151 153 162 168 153 75 54 96 151 336 347 339 324 321 321 320 319 317 303 272 247 238 238 236 228 223 231 251 262 257 245 242 247 249 247 242 230 222 219
128 132 131 172 214 260 277 221 193 130 119 135 138 133 126 117 107 102 108 112 103 97 96 90 85 86 12 8 53 82 48 45 73 14 27 59 89 134 115 103 278 284 257 203 189 171 156 151 150 151 154 152 140 100 53 303 286 307 322 326 321 314 308 308 312 317 311 287 265 255 258 259 250 240 238 247 262 265 261 265 273 266 250 234 224 223 227
114 113 102 121 129 338 341 13 135 111 98 125 133 130 122 115 111 111 117 116 105 100 98 91 87 88 22 15 51 63 331 316 115 96 59 60 177 167 129 144 206 228 228 180 161 158 159 162 165 167 166 170 200 270 283 275 278 290 296 299 306 310 305 300 299 307 313 301 277 261 259 263 257 246 238 240 254 262 261 269 283 277 250 230 226 232 240
111 119 155 190 240 310 335 51 117 127 122 124 127 127 121 114 109 109 115 118 112 104 99 94 88 76 51 39 65 143 262 312 64 68 72 227 188 127 127 178 219 209 169 150 153 161 165 169 178 190 207 249 279 290 292 282 276 278 276 270 280 299 303 293 285 295 311 307 279 256 254 263 263 250 241 243 253 257 254 258 276 286 269 247 238 235 240
134 122 11 354 299 278 271 113 113 117 127 132 133 131 126 120 116 119 126 124 111 101 106 120 112 90 81 157 175 123 103 57 39 40 273 260 320 115 153 166 164 149 142 139 143 156 163 160 161 185 247 273 286 307 317 310 299 293 288 276 277 290 296 288 279 290 307 305 283 265 264 267 260 246 242 246 253 256 256 258 265 273 277 268 247 233 233